523  
ASUS41 KBTV 301030  
RWRBTV  
VERMONT REGIONAL WEATHER ROUNDUP  
NATIONAL WEATHER SERVICE BURLINGTON VT  
600 AM EDT TUE MAY 30 2017  
 
NOTE: "FAIR" INDICATES FEW OR NO CLOUDS BELOW 12,000 FEET WITH NO  
SIGNIFICANT WEATHER AND/OR S TO VISIBILITY
.  
 
* THESE REPORTS ARE NOT UNDER NWS QUALITY CONTROL AND/OR DO NOT  
REPORT WEATHER SUCH AS PRECIPITATION AND FOG.
 
 
VTZ001>019-301100-  
_____VERMONT_____  
 
 
CITY SKY/WX TMP DP RH WIND PRES REMARKS
 
BURLINGTON MOCLDY 57 50 77 S13G21 30.03R  
MONTPELIER CLOUDY 48 47 96 SE9 30.12S  
MORRISVILLE CLOUDY 49 46 90 S6 30.09R  
ST. JOHNSBURY* N/A 49 45 86 MISG 30.10R  
LYNDONVILLE* CLOUDY 47 45 92 SE7 30.12S  
MIDDLEBURY* CLOUDY 55 49 81 S8 30.08R  
RUTLAND* CLOUDY 51 47 86 SE9 30.10R  
SPRINGFIELD CLOUDY 49 46 90 VRB3 30.14S FOG  
HIGHGATE* CLOUDY 56 51 82 S13 30.01R  
NEWPORT* CLOUDY 49 46 89 S13 30.08R  
BENNINGTON CLOUDY 54 48 80 SE8 30.09S  
SUTTON* N/A 46 N/A N/A MISG N/A  
MT. MANSFIELD* N/A 46 N/A N/A S23 N/A  
 
_____LAKE CHAMPLAIN_____  
 
 
CITY SKY/WX TMP DP RH WIND PRES REMARKS
 
BURTON ISLAND* N/A 57 52 82 S22 N/A  
COLCHESTER RF* N/A 55 52 88 S28 N/A  
DIAMOND ISL* N/A 55 50 82 S22 N/A  
 

 
 
NYZ007-026>031-035-052-083-087-301100-  
_____NORTHERN NEW YORK_____  
 
 
CITY SKY/WX TMP DP RH WIND PRES REMARKS
 
PLATTSBURGH MOCLDY 55 50 83 SE13 30.01R  
SARANAC LAKE CLOUDY 41 41 100 CALM 29.98F  
MASSENA CLOUDY 53 53 100 CALM 29.95R  
OGDENSBURG* FAIR 58 55 88 S8 29.95R  
POTSDAM* CLOUDY 59 55 88 SW8 29.96R  
WATERTOWN LGT RAIN 59 58 96 S8G16 29.96R FOG  
FT DRUM LGT RAIN 57 54 88 S8 29.97R  
ALBANY CLOUDY 56 51 84 S12 30.08R  
 

 
NHZ002-005-011-301100-  
_____NEW HAMPSHIRE_____  
 
 
CITY SKY/WX TMP DP RH WIND PRES REMARKS
 
LEBANON CLOUDY 50 48 93 CALM 30.13R  
KEENE CLOUDY 49 48 97 CALM 30.16R  
MT WASHINGTON MOCLDY 40 38 95 W21 N/A WCI 30  
PLYMOUTH CLOUDY 47 46 93 CALM 30.17R  
WHITEFIELD CLOUDY 47 43 86 CALM 30.12R  
 

 
 
_____REGIONAL QUEBEC LOCATIONS_____  
 
 
CITY SKY/WX TMP DP RH WIND PRES REMARKS
 
MONTREAL MOCLDY 55 52 88 SE8 29.96R  
QUEBEC CITY LGT RAIN 52 48 87 NE8 30.05S  
SHERBROOKE PTCLDY 50 46 87 E6 30.05S  
 
_____REGIONAL ONTARIO LOCATIONS_____  
 
 
CITY SKY/WX TMP DP RH WIND PRES REMARKS
 
OTTAWA MOCLDY 55 55 100 SE7 29.93R  
 
______KEY______  
VSB - VISIBILITY IN MILES  
WCI - WIND CHILL INDEX  
HX - HEAT INDEX  

 
NNNN  
 
 
CLICK HERE TO GO TO PREVIOUS BULLETINS.

The Nexlab VT Page
The Nexlab NY Page Main Text Page